ALOS-4 (DAICHI-4)

Last updated on Sun Sep 20 2026 00:02:45 GMT+0000 (Coordinated Universal Time)

1 60182U 24123A 26262.57397468 .00000882 00000+0 12497-3 0 9999 2 60182 97.9220 358.3907 0001457 99.3974 260.7402 14.79470635119830
UTC large
Height (km)
Speed (km/s)
/
Latitude / Longitude
Inclination (degrees)
Orbital Period (minutes)
Azimuth
Elevation
Range (km)
Doppler Factor

Next 0 passes for location: London (51.5072 / 0.1276)

No passes found over London.
ALOS-4 (DAICHI-4)